星链-11495 (STARLINK-11495)

导读

STARLINK-11495是美国太空探索技术公司(SpaceX)于2024年12月8日发射的星链(Starlink)卫星,归属于美国。星链项目旨在通过数千颗低轨卫星组成的星座,为全球尤其是传统网络基础设施匮乏地区提供高速低延迟宽带互联网服务,支持远程办公、在线娱乐等多种应用场景,推动全球互联网覆盖范围拓展。

基本信息
目录编号:
62275
目录名称:
STARLINK-11495
国际标识:
2024-237J
轨道中心:
EARTH
卫星名称:
星链-11495
卫星全名:
星链-11495 (STARLINK-11495)
卫星状态:
在轨 (已飞行553 天)
发射日期:
2024-12-08 UTC
国别 :
美国 (US)
星等 :
--
轨道信息
数据来源 国际轨道数据
星历时间: 2026-06-13T16:56:56+0800
1天前
查看轨道信息
半长轴: 6734.369km
偏心率: 0.0001686
轨道倾角: 42.997°
近地点辐角 245.763°
升交点赤经 200.500°
平近点角 114.306°
近地点: 355.096km
远地点: 357.368km
周期: 91.665分钟
每日圈数: 15.709322
详细信息
固有亮度:
5
最大亮度:
2.5
卫星平台:
Starlink V1.0
覆盖范围:
全球
运营商:
太空探索技术公司
运营商所在国:
美国
制造商(研发单位):
太空探索技术公司
制造商所在国:
美国
使用方式:
暂无
卫星简介
Starlink 计划是 SpaceX 推出的全球卫星互联网项目,通过发射低轨道卫星,为全球尤其是偏远地区提供高速、低延迟的互联网服务。自 2019 年起,Starlink 已部署数千颗卫星,旨在缩小全球数字鸿沟,推动互联网普及。该项目还为军事、航空等行业提供通信支持,带来广泛经济效益。
2D轨道图
3D轨道图
轨道高度分析图
轨道倾角分析图
轨道综合分析图
查看轨道综合分析图